| time (UTC) | temp F | wind direction | speed MPH | gust MPH | rain 1hr in | rain 24hr in | rain mn in | humidity % | barometer mb |
| 20260906200336 | 73 | 45 | 2.0 | 4.0 | 0.00 | 0.00 | 0.00 | 61 | 1017.6 |
| 20260906195315 | 72 | 45 | 3.0 | 4.0 | 0.00 | 0.00 | 0.00 | 62 | 1017.5 |
| 20260906194315 | 73 | 67 | 2.0 | 4.0 | 0.00 | 0.00 | 0.00 | 65 | 1017.4 |
| 20260906193317 | 74 | 337 | 3.0 | 6.0 | 0.00 | 0.00 | 0.00 | 57 | 1017.6 |
| 20260906192315 | 72 | 45 | 2.0 | 5.0 | 0.00 | 0.00 | 0.00 | 63 | 1017.6 |
| 20260906191415 | 74 | 22 | 2.0 | 4.0 | 0.00 | 0.00 | 0.00 | 61 | 1017.6 |
| 20260906190356 | 73 | 90 | 1.0 | 2.0 | 0.00 | 0.00 | 0.00 | 65 | 1017.6 |
| 20260906185316 | 73 | 67 | 1.0 | 3.0 | 0.00 | 0.00 | 0.00 | 61 | 1017.5 |
| 20260906184335 | 75 | 90 | 4.0 | 7.0 | 0.00 | 0.00 | 0.00 | 60 | 1017.5 |
| 20260906183315 | 72 | 45 | 3.0 | 5.0 | 0.00 | 0.00 | 0.00 | 62 | 1017.6 |
| 20260906182335 | 75 | 270 | 4.0 | 7.0 | 0.00 | 0.00 | 0.00 | 62 | 1017.7 |
| 20260906181315 | 75 | 337 | 4.0 | 7.0 | 0.00 | 0.00 | 0.00 | 61 | 1017.7 |
| 20260906180336 | 74 | 45 | 2.0 | 4.0 | 0.00 | 0.00 | 0.00 | 62 | 1017.6 |
| 20260906175315 | 73 | 45 | 4.0 | 7.0 | 0.00 | 0.00 | 0.00 | 62 | 1017.6 |
| 20260906174315 | 73 | 45 | 3.0 | 6.0 | 0.00 | 0.00 | 0.00 | 63 | 1017.7 |
| 20260906173336 | 74 | 292 | 2.0 | 4.0 | 0.00 | 0.00 | 0.00 | 68 | 1017.8 |
| 20260906172315 | 73 | 45 | 2.0 | 5.0 | 0.00 | 0.00 | 0.00 | 65 | 1017.8 |
| 20260906171315 | 71 | 45 | 4.0 | 5.0 | 0.00 | 0.00 | 0.00 | 67 | 1017.8 |
| 20260906170336 | 74 | 292 | 1.0 | 4.0 | 0.00 | 0.00 | 0.00 | 67 | 1017.9 |
| 20260906165435 | 72 | 90 | 1.0 | 3.0 | 0.00 | 0.00 | 0.00 | 69 | 1018.0 |
| 20260906164335 | 70 | 0.0 | 0.0 | 0.00 | 0.00 | 0.00 | 70 | 1018.0 | |
| 20260906163436 | 70 | 0.0 | 0.0 | 0.00 | 0.00 | 0.00 | 73 | 1018.0 | |
| 20260906162315 | 71 | 0.0 | 0.0 | 0.00 | 0.00 | 0.00 | 73 | 1018.0 | |
| 20260906161355 | 71 | 0.0 | 0.0 | 0.00 | 0.00 | 0.00 | 70 | 1018.1 | |
| 20260906160315 | 70 | 0.0 | 0.0 | 0.00 | 0.00 | 0.00 | 72 | 1018.1 | |
| 20260906155336 | 69 | 0.0 | 2.0 | 0.00 | 0.00 | 0.00 | 73 | 1018.1 | |
| 20260906154335 | 70 | 0.0 | 0.0 | 0.00 | 0.00 | 0.00 | 73 | 1018.2 | |
| 20260906153336 | 68 | 0.0 | 0.0 | 0.00 | 0.00 | 0.00 | 78 | 1018.1 | |
| 20260906152335 | 68 | 0.0 | 1.0 | 0.00 | 0.00 | 0.00 | 75 | 1018.1 | |
| 20260906151355 | 69 | 0.0 | 0.0 | 0.00 | 0.00 | 0.00 | 74 | 1018.2 | |
| 20260906150315 | 70 | 45 | 1.0 | 4.0 | 0.00 | 0.00 | 0.00 | 77 | 1018.1 |
| 20260906145316 | 70 | 0.0 | 1.0 | 0.00 | 0.00 | 0.00 | 78 | 1018.2 | |
| 20260906144315 | 68 | 0.0 | 0.0 | 0.00 | 0.00 | 0.00 | 76 | 1018.1 | |
| 20260906143355 | 68 | 0.0 | 0.0 | 0.00 | 0.00 | 0.00 | 77 | 1018.0 | |
| 20260906142356 | 69 | 22 | 1.0 | 3.0 | 0.00 | 0.00 | 0.00 | 79 | 1018.0 |
| 20260906141315 | 69 | 0.0 | 0.0 | 0.00 | 0.00 | 0.00 | 79 | 1017.9 | |
| 20260906140315 | 66 | 45 | 1.0 | 2.0 | 0.00 | 0.00 | 0.00 | 83 | 1018.0 |
| 20260906135336 | 66 | 0.0 | 1.0 | 0.00 | 0.00 | 0.00 | 87 | 1018.0 | |
| 20260906134315 | 67 | 0.0 | 2.0 | 0.00 | 0.00 | 0.00 | 92 | 1017.9 | |
| 20260906133336 | 64 | 0.0 | 0.0 | 0.00 | 0.00 | 0.00 | 93 | 1017.6 | |
| 20260906132335 | 63 | 0.0 | 1.0 | 0.00 | 0.00 | 0.00 | 93 | 1017.7 | |
| 20260906131335 | 62 | 0.0 | 0.0 | 0.00 | 0.00 | 0.00 | 94 | 1017.8 | |
| 20260906130355 | 61 | 0.0 | 0.0 | 0.00 | 0.00 | 0.00 | 94 | 1017.7 | |
| 20260906125317 | 60 | 0.0 | 0.0 | 0.00 | 0.00 | 0.00 | 94 | 1017.7 | |
| 20260906124358 | 60 | 0.0 | 0.0 | 0.00 | 0.00 | 0.00 | 93 | 1017.5 | |
| 20260906123317 | 59 | 0.0 | 0.0 | 0.00 | 0.00 | 0.00 | 93 | 1017.4 | |
| 20260906122337 | 58 | 0.0 | 0.0 | 0.00 | 0.00 | 0.00 | 93 | 1017.4 | |
| 20260906120337 | 57 | 0.0 | 0.0 | 0.00 | 0.00 | 0.00 | 93 | 1017.3 | |
| 20260906115337 | 56 | 0.0 | 0.0 | 0.00 | 0.00 | 0.00 | 93 | 1017.2 | |
| 20260906114357 | 56 | 0.0 | 0.0 | 0.00 | 0.00 | 0.00 | 93 | 1017.0 | |
| 20260906113317 | 55 | 0.0 | 0.0 | 0.00 | 0.00 | 0.00 | 93 | 1017.1 | |
| 20260906112317 | 55 | 0.0 | 0.0 | 0.00 | 0.00 | 0.00 | 93 | 1017.0 | |
| 20260906111357 | 55 | 0.0 | 0.0 | 0.00 | 0.00 | 0.00 | 93 | 1017.0 | |
| 20260906110417 | 55 | 0.0 | 0.0 | 0.00 | 0.00 | 0.00 | 93 | 1017.0 | |
| 20260906105337 | 55 | 0.0 | 0.0 | 0.00 | 0.00 | 0.00 | 93 | 1016.9 | |
| 20260906104357 | 55 | 0.0 | 0.0 | 0.00 | 0.00 | 0.00 | 93 | 1016.8 | |
| 20260906103337 | 55 | 0.0 | 0.0 | 0.00 | 0.00 | 0.00 | 93 | 1016.7 | |
| 20260906102316 | 55 | 0.0 | 0.0 | 0.00 | 0.00 | 0.00 | 93 | 1016.6 | |
| 20260906101316 | 55 | 0.0 | 0.0 | 0.00 | 0.00 | 0.00 | 93 | 1016.6 | |
| 20260906100337 | 55 | 0.0 | 0.0 | 0.00 | 0.00 | 0.00 | 93 | 1016.5 | |
| 20260906095437 | 55 | 0.0 | 0.0 | 0.00 | 0.00 | 0.00 | 93 | 1016.4 | |
| 20260906094457 | 55 | 0.0 | 0.0 | 0.00 | 0.00 | 0.00 | 93 | 1016.4 | |
| 20260906093316 | 56 | 0.0 | 0.0 | 0.00 | 0.00 | 0.00 | 93 | 1016.3 | |
| 20260906092437 | 55 | 0.0 | 0.0 | 0.00 | 0.00 | 0.00 | 93 | 1016.1 | |
| 20260906091316 | 55 | 0.0 | 0.0 | 0.00 | 0.00 | 0.00 | 93 | 1016.0 | |
| 20260906090416 | 55 | 0.0 | 0.0 | 0.00 | 0.00 | 0.00 | 93 | 1015.9 | |
| 20260906085316 | 56 | 0.0 | 0.0 | 0.00 | 0.00 | 0.00 | 93 | 1015.9 | |
| 20260906084417 | 56 | 0.0 | 0.0 | 0.00 | 0.00 | 0.00 | 93 | 1015.8 | |
| 20260906083316 | 56 | 0.0 | 0.0 | 0.00 | 0.00 | 0.00 | 93 | 1015.8 | |
| 20260906082316 | 55 | 0.0 | 0.0 | 0.00 | 0.00 | 0.00 | 93 | 1015.7 | |
| 20260906081336 | 55 | 0.0 | 0.0 | 0.00 | 0.00 | 0.00 | 93 | 1015.6 | |
| 20260906080336 | 55 | 0.0 | 0.0 | 0.00 | 0.00 | 0.00 | 93 | 1015.6 | |
| 20260906075356 | 55 | 0.0 | 0.0 | 0.00 | 0.00 | 0.00 | 93 | 1015.5 | |
| 20260906074316 | 55 | 0.0 | 0.0 | 0.00 | 0.00 | 0.00 | 93 | 1015.6 | |
| 20260906073338 | 55 | 0.0 | 0.0 | 0.00 | 0.00 | 0.00 | 93 | 1015.5 | |
| 20260906072336 | 55 | 0.0 | 0.0 | 0.00 | 0.00 | 0.00 | 93 | 1015.5 | |
| 20260906071316 | 55 | 0.0 | 0.0 | 0.00 | 0.00 | 0.00 | 92 | 1015.6 | |
| 20260906070317 | 55 | 0.0 | 0.0 | 0.00 | 0.00 | 0.00 | 92 | 1015.5 | |
| 20260906065316 | 55 | 0.0 | 0.0 | 0.00 | 0.00 | 0.00 | 93 | 1015.5 | |
| 20260906064336 | 56 | 0.0 | 0.0 | 0.00 | 0.00 | 0.00 | 93 | 1015.5 | |
| 20260906063316 | 56 | 0.0 | 0.0 | 0.00 | 0.00 | 0.00 | 92 | 1015.6 | |
| 20260906062336 | 56 | 0.0 | 0.0 | 0.00 | 0.00 | 0.00 | 92 | 1015.6 | |
| 20260906060356 | 56 | 0.0 | 0.0 | 0.00 | 0.00 | 0.00 | 92 | 1015.8 | |
| 20260906055337 | 56 | 0.0 | 0.0 | 0.00 | 0.00 | 0.00 | 92 | 1015.8 | |
| 20260906054356 | 56 | 0.0 | 0.0 | 0.00 | 0.00 | 0.00 | 92 | 1015.9 | |
| 20260906053316 | 57 | 0.0 | 0.0 | 0.00 | 0.00 | 0.00 | 92 | 1016.0 | |
| 20260906052316 | 57 | 0.0 | 0.0 | 0.00 | 0.00 | 0.00 | 92 | 1016.0 | |
| 20260906051316 | 57 | 0.0 | 0.0 | 0.00 | 0.00 | 0.00 | 92 | 1016.0 | |
| 20260906050336 | 57 | 0.0 | 0.0 | 0.00 | 0.00 | 0.00 | 92 | 1015.9 | |
| 20260906045317 | 57 | 0.0 | 0.0 | 0.00 | 0.00 | 0.00 | 92 | 1015.8 | |
| 20260906044316 | 57 | 0.0 | 0.0 | 0.00 | 0.00 | 0.00 | 92 | 1015.9 | |
| 20260906043337 | 57 | 0.0 | 0.0 | 0.00 | 0.00 | 0.00 | 92 | 1015.9 | |
| 20260906042316 | 57 | 0.0 | 0.0 | 0.00 | 0.00 | 0.00 | 92 | 1015.8 | |
| 20260906041336 | 57 | 0.0 | 0.0 | 0.00 | 0.00 | 0.00 | 92 | 1015.7 | |
| 20260906040316 | 57 | 0.0 | 0.0 | 0.00 | 0.00 | 0.00 | 92 | 1015.6 | |
| 20260906035316 | 57 | 0.0 | 0.0 | 0.00 | 0.00 | 0.00 | 92 | 1015.6 | |
| 20260906034356 | 58 | 0.0 | 0.0 | 0.00 | 0.00 | 0.00 | 92 | 1015.6 | |
| 20260906033336 | 58 | 0.0 | 0.0 | 0.00 | 0.00 | 0.00 | 92 | 1015.5 | |
| 20260906032316 | 58 | 0.0 | 0.0 | 0.00 | 0.00 | 0.00 | 91 | 1015.5 | |
| 20260906031316 | 58 | 0.0 | 0.0 | 0.00 | 0.00 | 0.00 | 91 | 1015.4 | |
| 20260906030417 | 58 | 0.0 | 0.0 | 0.00 | 0.00 | 0.00 | 91 | 1015.2 | |
| 20260906025316 | 59 | 0.0 | 0.0 | 0.00 | 0.00 | 0.00 | 91 | 1015.3 | |
| 20260906024356 | 59 | 0.0 | 0.0 | 0.00 | 0.00 | 0.00 | 91 | 1015.4 | |
| 20260906023417 | 59 | 0.0 | 0.0 | 0.00 | 0.00 | 0.00 | 91 | 1015.3 | |
| 20260906022316 | 59 | 0.0 | 0.0 | 0.00 | 0.00 | 0.00 | 91 | 1015.3 | |
| 20260906021316 | 60 | 0.0 | 0.0 | 0.00 | 0.00 | 0.00 | 91 | 1015.1 | |
| 20260906020316 | 60 | 0.0 | 0.0 | 0.00 | 0.00 | 0.00 | 91 | 1015.0 | |
| 20260906015337 | 60 | 0.0 | 0.0 | 0.00 | 0.00 | 0.00 | 90 | 1014.9 | |
| 20260906014316 | 60 | 0.0 | 0.0 | 0.00 | 0.00 | 0.00 | 90 | 1014.7 | |
| 20260906013317 | 61 | 0.0 | 0.0 | 0.00 | 0.00 | 0.00 | 90 | 1014.7 | |
| 20260906012316 | 61 | 0.0 | 0.0 | 0.00 | 0.00 | 0.00 | 90 | 1014.6 | |
| 20260906011316 | 61 | 0.0 | 0.0 | 0.00 | 0.00 | 0.00 | 90 | 1014.6 | |
| 20260906010336 | 62 | 0.0 | 0.0 | 0.00 | 0.00 | 0.00 | 89 | 1014.5 | |
| 20260906005316 | 62 | 0.0 | 0.0 | 0.00 | 0.00 | 0.00 | 89 | 1014.5 | |
| 20260906004337 | 63 | 0.0 | 0.0 | 0.00 | 0.00 | 0.00 | 88 | 1014.4 | |
| 20260906003316 | 63 | 0.0 | 0.0 | 0.00 | 0.00 | 0.00 | 88 | 1014.1 | |
| 20260906002316 | 64 | 0.0 | 0.0 | 0.00 | 0.00 | 0.00 | 87 | 1014.1 | |
| 20260906001316 | 64 | 0.0 | 0.0 | 0.00 | 0.00 | 0.00 | 86 | 1014.1 | |
| 20260906000318 | 65 | 0.0 | 0.0 | 0.00 | 0.00 | 0.00 | 86 | 1014.1 | |
| 20260905235356 | 66 | 0.0 | 0.0 | 0.00 | 0.00 | 0.00 | 85 | 1013.9 | |
| 20260905234416 | 66 | 0.0 | 0.0 | 0.00 | 0.00 | 0.00 | 83 | 1014.0 | |
| 20260905233336 | 67 | 0.0 | 0.0 | 0.00 | 0.00 | 0.00 | 82 | 1014.0 | |
| 20260905232336 | 68 | 0.0 | 0.0 | 0.00 | 0.00 | 0.00 | 79 | 1014.1 | |
| 20260905231316 | 69 | 0.0 | 0.0 | 0.00 | 0.00 | 0.00 | 78 | 1014.2 | |
| 20260905230356 | 70 | 292 | 1.0 | 3.0 | 0.00 | 0.00 | 0.00 | 77 | 1014.0 |
| 20260905225417 | 70 | 0.0 | 0.0 | 0.00 | 0.00 | 0.00 | 75 | 1014.1 | |
| 20260905224316 | 71 | 0.0 | 1.0 | 0.00 | 0.00 | 0.00 | 74 | 1013.9 | |
| 20260905223356 | 71 | 112 | 1.0 | 2.0 | 0.00 | 0.00 | 0.00 | 73 | 1013.9 |
| 20260905222316 | 72 | 0.0 | 0.0 | 0.00 | 0.00 | 0.00 | 72 | 1013.9 | |
| 20260905221316 | 73 | 292 | 1.0 | 1.0 | 0.00 | 0.00 | 0.00 | 72 | 1013.8 |
| 20260905220336 | 72 | 45 | 1.0 | 2.0 | 0.00 | 0.00 | 0.00 | 71 | 1013.7 |
| 20260905215316 | 73 | 45 | 1.0 | 2.0 | 0.00 | 0.00 | 0.00 | 71 | 1013.7 |
| 20260905214437 | 73 | 45 | 1.0 | 2.0 | 0.00 | 0.00 | 0.00 | 68 | 1013.7 |
| 20260905213336 | 73 | 45 | 3.0 | 4.0 | 0.00 | 0.00 | 0.00 | 68 | 1013.5 |
| 20260905212336 | 73 | 270 | 2.0 | 4.0 | 0.00 | 0.00 | 0.00 | 69 | 1013.4 |
| 20260905211315 | 74 | 0.0 | 0.0 | 0.00 | 0.00 | 0.00 | 69 | 1013.4 | |
| 20260905210318 | 74 | 247 | 2.0 | 3.0 | 0.00 | 0.00 | 0.00 | 68 | 1013.3 |
| 20260905205336 | 74 | 315 | 1.0 | 2.0 | 0.00 | 0.00 | 0.00 | 67 | 1013.4 |
| 20260905204315 | 75 | 292 | 4.0 | 8.0 | 0.00 | 0.00 | 0.00 | 68 | 1013.5 |
| 20260905203336 | 75 | 45 | 4.0 | 6.0 | 0.00 | 0.00 | 0.00 | 67 | 1013.3 |
| 20260905202415 | 75 | 0 | 2.0 | 3.0 | 0.00 | 0.00 | 0.00 | 67 | 1013.4 |
| 20260905201335 | 74 | 45 | 2.0 | 3.0 | 0.00 | 0.00 | 0.00 | 70 | 1013.5 |